Regional Weather Roundup
Issued by NWS

Home | Current Version | Previous Version | Text Only | Print | Product List | Glossary On
Versions: 1 2 3 4 5 6 7 8 9 10 11 12 13 14 15 16 17 18 19 20 21 22 23 24 25 26 27 28 29 30 31 32 33 34 35 36 37 38 39 40 41 42 43 44 45 46 47 48 49 50
000
ASUS43 KLSX 061807
RWRMO

WEATHER SUMMARY FOR MISSOURI
NATIONAL WEATHER SERVICE SPRINGFIELD MO
100 PM CDT WED MAY 06 2015

NOTE: "FAIR" INDICATES FEW OR NO CLOUDS BELOW 12,000 FEET WITH NO
       SIGNIFICANT WEATHER AND/OR OBSTRUCTIONS TO VISIBILITY.
       CURRENT SKY AND/OR WEATHER CONDITIONS ARE NOT AVAILABLE FOR
       CHILLICOTHE AND FARMINGTON.

MOZ001>031-035>038-043-044-053-054-061900-
...NORTHERN AND WESTERN MISSOURI...

CITY           SKY/WX    TMP DP  RH WIND       PRES   REMARKS
KANSAS CTY INT CLOUDY    67  60  78 S9        29.97F
6HR MIN TEMP:  65; 6HR MAX TEMP:  70; 6HR PCP: TRACE;

KANSAS C DTWN  CLOUDY    69  58  67 S12       29.97F
6HR MIN TEMP:  68; 6HR MAX TEMP:  70; 6HR PCP: TRACE;

LEE`S SUMMIT   LGT RAIN  68  59  73 S15G24    29.98F
6HR MIN TEMP:  64; 6HR MAX TEMP:  69; 6HR PCP:  0.01;

ST JOSEPH      LGT RAIN  69  60  73 S21G31    29.95S
6HR MIN TEMP:  66; 6HR MAX TEMP:  71; 6HR PCP: TRACE;

CHILLICOTHE      N/A     71  61  70 S10G17    30.01S
6HR MIN TEMP:  65; 6HR MAX TEMP:  72;

KIRKSVILLE     CLOUDY    75  61  61 S12       30.02S
6HR MIN TEMP:  64; 6HR MAX TEMP:  79;


$$
MOZ066>068-077>081-088>096-101>105-061900-
...SOUTHWEST MISSOURI...

CITY           SKY/WX    TMP DP  RH WIND       PRES   REMARKS
SPRINGFIELD    LGT RAIN  67  63  87 SE9       30.05F
6HR MIN TEMP:  60; 6HR MAX TEMP:  67; 6HR PCP:  0.12;

JOPLIN         FAIR      74  61  63 SE7G31    29.98F
6HR MIN TEMP:  61; 6HR MAX TEMP:  75; 6HR PCP:  0.07;


$$
MOZ032>034-039>042-045>050-055>058-069>072-061900-
...CENTRAL MISSOURI...

CITY           SKY/WX    TMP DP  RH WIND       PRES   REMARKS
COLUMBIA       FAIR      79  59  50 S17G29    30.05S
6HR MIN TEMP:  63; 6HR MAX TEMP:  80;

JEFFERSON CITY PTSUNNY   80  54  40 SW12G22   30.04F
6HR MIN TEMP:  63; 6HR MAX TEMP:  80;

ROLLA          PTSUNNY   74  59  59 S10       30.07F
6HR MIN TEMP:  62; 6HR MAX TEMP:  79; 6HR PCP: TRACE;

SEDALIA        CLOUDY    69  59  70 S16       30.04F
6HR MIN TEMP:  63; 6HR MAX TEMP:  71; 6HR PCP: TRACE;

WHITEMAN AFB   DRIZZLE   66  61  84 S12G21    30.02S
WARRENSBURG    FAIR      70  59  68 S15G22    30.01F
OSAGE BEACH    PTSUNNY   79  55  44 S10G18    30.06F

$$
MOZ051-052-059>065-061900-
...EAST CENTRAL MISSOURI...

CITY           SKY/WX    TMP DP  RH WIND       PRES   REMARKS
ST LOUIS INTL  PTSUNNY   85  53  33 S14G24    30.10F
6HR MIN TEMP:  68; 6HR MAX TEMP:  85;

SPIRIT OF STL  PTSUNNY   82  55  39 S12G18    30.07F
6HR MIN TEMP:  65; 6HR MAX TEMP:  83;

ST CHARLES     PTSUNNY   83  54  36 S18G28    30.08F
6HR MIN TEMP:  62; 6HR MAX TEMP:  84;


$$
MOZ072>076-082>087-097>100-106>115-061900-
...SOUTH CENTRAL AND SOUTHEAST MISSOURI...

CITY           SKY/WX    TMP DP  RH WIND       PRES   REMARKS
CAPE GIRARDEAU FAIR      83  55  38 S9        30.11F
6HR MIN TEMP:  60; 6HR MAX TEMP:  83;

FARMINGTON     FAIR      81  54  39 SW15G22   30.15F
6HR MIN TEMP:  55; 6HR MAX TEMP:  81;

POPLAR BLUFF   LGT RAIN  83  54  36 S10G20    30.10F
6HR MIN TEMP:  57; 6HR MAX TEMP:  83; 6HR PCP: TRACE;

WEST PLAINS    PTSUNNY   75  55  49 S12       30.11F
6HR MIN TEMP:  56; 6HR MAX TEMP:  78;


$$


USA.gov is the U.S. government's official web portal to all federal, state and local government web resources and services.